EW8494 Weather Reports


Display with metric or nautical units.
time (UTC)temp
F
wind
direction
speed
MPH
gust
MPH
rain 1hr
in
rain 24hr
in
rain mn
in
humidity
%
barometer
mb
20260507015428 75 313 6.0 0.0 0.00 0.00 0.00 28
20260507014411 75 0.0 0.0 0.00 0.00 0.00 28
20260507013346 75 338 12.0 14.0 0.00 0.00 0.00 28
20260507012307 75 338 7.0 11.0 0.00 0.00 0.00 27
20260507011225 76 338 8.0 11.0 0.00 0.00 0.00 29
20260507010210 77 338 9.0 13.0 0.00 0.00 0.00 29
20260507005219 77 315 4.0 8.0 0.00 0.00 0.00 30
20260507004209 79 338 3.0 5.0 0.00 0.00 0.00 36
20260507003209 79 293 4.0 9.0 0.00 0.00 0.00 31
20260507002214 80 248 6.0 9.0 0.00 0.00 0.00 31
20260507001227 80 225 3.0 5.0 0.00 0.00 0.00 35
20260507000247 81 203 3.0 7.0 0.00 0.00 0.00 35
20260506235208 81 225 4.0 6.0 0.00 0.00 0.00 35
20260506234208 81 225 4.0 8.0 0.00 0.00 0.00 35
20260506233227 81 203 4.0 10.0 0.00 0.00 0.00 32
20260506232206 81 203 6.0 14.0 0.00 0.00 0.00 32
20260506231206 81 203 6.0 13.0 0.00 0.00 0.00 29
20260506230206 83 203 5.0 11.0 0.00 0.00 0.00 27
20260506225204 83 203 7.0 13.0 0.00 0.00 0.00 25
20260506224206 82 203 7.0 14.0 0.00 0.00 0.00 26
20260506223205 82 203 6.0 9.0 0.00 0.00 0.00 27
20260506222205 81 203 5.0 11.0 0.00 0.00 0.00 28
20260506221225 82 203 5.0 10.0 0.00 0.00 0.00 28
20260506220203 82 203 7.0 11.0 0.00 0.00 0.00 27
20260506215225 80 203 7.0 12.0 0.00 0.00 0.00 28
20260506214203 80 203 8.0 14.0 0.00 0.00 0.00 30
20260506213202 82 203 8.0 16.0 0.00 0.00 0.00 28
20260506212202 81 203 9.0 14.0 0.00 0.00 0.00 27
20260506211204 82 203 10.0 17.0 0.00 0.00 0.00 28
20260506210222 81 203 8.0 13.0 0.00 0.00 0.00 29
20260506205201 82 203 9.0 15.0 0.00 0.00 0.00 29
20260506204201 81 203 9.0 16.0 0.00 0.00 0.00 31
20260506203202 81 203 8.0 13.0 0.00 0.00 0.00 29
20260506202159 81 203 7.0 14.0 0.00 0.00 0.00 29
20260506201203 81 225 8.0 14.0 0.00 0.00 0.00 30
20260506200221 81 203 5.0 9.0 0.00 0.00 0.00 30
20260506195201 80 203 4.0 9.0 0.00 0.00 0.00 29
20260506194159 80 225 7.0 12.0 0.00 0.00 0.00 31
20260506193200 79 203 5.0 8.0 0.00 0.00 0.00 32
20260506192212 78 225 5.0 8.0 0.00 0.00 0.00 32
20260506191158 78 203 7.0 15.0 0.00 0.00 0.00 32
20260506190157 78 203 7.0 12.0 0.00 0.00 0.00 35
20260506185200 78 203 6.0 11.0 0.00 0.00 0.00 32
20260506184237 77 203 4.0 7.0 0.00 0.00 0.00 34
20260506183157 77 203 6.0 11.0 0.00 0.00 0.00 33
20260506182217 76 203 6.0 10.0 0.00 0.00 0.00 35
20260506181157 76 203 7.0 13.0 0.00 0.00 0.00 35
20260506180155 75 203 5.0 12.0 0.00 0.00 0.00 36
20260506175156 74 203 6.0 9.0 0.00 0.00 0.00 36
20260506174156 74 203 5.0 9.0 0.00 0.00 0.00 38
20260506173217 74 203 5.0 10.0 0.00 0.00 0.00 37
20260506172154 73 203 6.0 11.0 0.00 0.00 0.00 40
20260506171153 73 203 7.0 14.0 0.00 0.00 0.00 39
20260506170154 72 225 8.0 14.0 0.00 0.00 0.00 42
20260506165154 71 203 6.0 12.0 0.00 0.00 0.00 41
20260506164154 70 225 7.0 13.0 0.00 0.00 0.00 43
20260506163153 70 203 6.0 11.0 0.00 0.00 0.00 43
20260506162153 70 225 7.0 13.0 0.00 0.00 0.00 44
20260506161152 70 225 7.0 12.0 0.00 0.00 0.00 44
20260506160153 69 225 5.0 10.0 0.00 0.00 0.00 47
20260506155213 68 225 5.0 8.0 0.00 0.00 0.00 49
20260506154213 66 225 5.0 7.0 0.00 0.00 0.00 51
20260506153152 65 203 4.0 6.0 0.00 0.00 0.00 53
20260506152150 65 225 3.0 5.0 0.00 0.00 0.00 52
20260506151155 64 225 2.0 4.0 0.00 0.00 0.00 53
20260506150151 63 0.0 0.0 0.00 0.00 0.00 54
20260506145151 63 225 1.0 2.0 0.00 0.00 0.00 53
20260506144153 62 0.0 3.0 0.00 0.00 0.00 55
20260506143153 61 225 2.0 4.0 0.00 0.00 0.00 54
20260506142212 61 0.0 0.0 0.00 0.00 0.00 56
20260506141152 60 0.0 0.0 0.00 0.00 0.00 59
20260506140152 58 0.0 0.0 0.00 0.00 0.00 62
20260506135211 57 0.0 0.0 0.00 0.00 0.00 63
20260506134150 55 0.0 0.0 0.00 0.00 0.00 65
20260506133209 55 0.0 0.0 0.00 0.00 0.00 64
20260506132151 55 0.0 0.0 0.00 0.00 0.00 63
20260506131149 55 0.0 0.0 0.00 0.00 0.00 62
20260506130151 56 0.0 0.0 0.00 0.00 0.00 61
20260506125148 55 0.0 0.0 0.00 0.00 0.00 62
20260506124150 55 0.0 0.0 0.00 0.00 0.00 63
20260506123208 54 0.0 0.0 0.00 0.00 0.00 65
20260506122148 54 0.0 0.0 0.00 0.00 0.00 65
20260506121147 54 0.0 0.0 0.00 0.00 0.00 65
20260506120148 55 0.0 0.0 0.00 0.00 0.00 66
20260506115147 55 0.0 0.0 0.00 0.00 0.00 65
20260506114148 56 0.0 0.0 0.00 0.00 0.00 64
20260506113146 56 0.0 0.0 0.00 0.00 0.00 64
20260506112146 56 0.0 0.0 0.00 0.00 0.00 62
20260506111147 57 0.0 0.0 0.00 0.00 0.00 61
20260506110147 58 0.0 0.0 0.00 0.00 0.00 60
20260506105147 59 0.0 0.0 0.00 0.00 0.00 59
20260506104147 60 0.0 0.0 0.00 0.00 0.00 56
20260506103146 60 0.0 0.0 0.00 0.00 0.00 55
20260506102146 60 0.0 0.0 0.00 0.00 0.00 60
20260506101144 59 0.0 1.0 0.00 0.00 0.00 60
20260506100145 59 0.0 1.0 0.00 0.00 0.00 60
20260506095218 59 0.0 0.0 0.00 0.00 0.00 62
20260506094144 59 0.0 1.0 0.00 0.00 0.00 61
20260506093144 60 0.0 0.0 0.00 0.00 0.00 61
20260506092144 60 0.0 0.0 0.00 0.00 0.00 59
20260506091144 60 0.0 0.0 0.00 0.00 0.00 61
20260506090204 60 0.0 0.0 0.00 0.00 0.00 59
20260506085142 60 0.0 2.0 0.00 0.00 0.00 60
20260506084143 60 0.0 1.0 0.00 0.00 0.00 59
20260506083141 60 0.0 2.0 0.00 0.00 0.00 61
20260506082202 61 0.0 0.0 0.00 0.00 0.00 59
20260506081143 62 0.0 0.0 0.00 0.00 0.00 60
20260506080142 63 0.0 0.0 0.00 0.00 0.00 58
20260506073139 63 0.0 2.0 0.00 0.00 0.00 54
20260506072140 63 0.0 0.0 0.00 0.00 0.00 60
20260506071140 62 0.0 0.0 0.00 0.00 0.00 58
20260506070220 63 0.0 0.0 0.00 0.00 0.00 58
20260506062159 65 0.0 0.0 0.00 0.00 0.00 56
20260506061139 66 0.0 0.0 0.00 0.00 0.00 54
20260506060157 67 0.0 0.0 0.00 0.00 0.00 49